Powrót do katalogu

COSMOS 2615

AktywnyMilitariaSSO
NORAD 68826·PAYLOAD·🇷🇺 Russia

Wystrzelony Apr 23, 2026 z Plesetsk Cosmodrome

Loading…

Następne Przeloty (najbliższe 24 godziny)

TLE

ŚwieżeSource: Space-Track

Epoka: Sep 14, 2026, 12:30 UTC

1 68826U 26090A   26257.52090395  .00033528  00000-0  13444-3 0  9992
2 68826  96.6347 172.8285 0011318  66.1437 294.1021 15.86336452 22838

Śledź COSMOS 2615 w czasie rzeczywistym z AllMySat

Download on the App Store